Flag for Norway Weather past 2 weeks in Stavern, Norway

Now
41 °F

Clear.


Feels Like: 37 °F
Forecast: 35 / 50 °F
Wind: 6 mph from West

Location: Torp

Current Time: Apr 26, 2015 at 11:31:08 PM

Latest Report: Apr 26, 2015 at 10:50 PM


Visibility: 10 mi

Pressure: 29.59 "Hg

Humidity: 57%

Dew point: 27 °F

Location of StavernLocation

Historic Weather in Stavern — Graph

°F

Stavern temperature yesterday

Maximum temperature yesterday: 46 °F (at 2:20 PM)
Minimum temperature yesterday: 43 °F (at 12:50 AM)
Average temperature yesterday: 45 °F

Past Weeks' High & Low Weather Summary

 TemperatureHumidityPressure
High68 °F (Apr 20, 5:50 PM)100% (Apr 11, 9:50 PM)30.36 "Hg (Apr 11, 9:50 PM)
Low32 °F (Apr 13, 6:20 AM)16% (Apr 20, 6:20 PM)29.39 "Hg (Apr 25, 6:50 PM)
Average48 °F55%29.90 "Hg
* Reported Apr 11 9:50 PM — Apr 26 9:50 PM, Stavern, Weather by CustomWeather, © 2015

Note: Actual official high and low records may vary slightly from our data, if they occured in-between our weather recording intervals... More about our weather records

Advertising

Stavern weather history for previous 24 hours

 ConditionsComfort  
Time TempWeatherWind HumidityBarometerVisibility
9:50 PM
Sun, Apr 26
45 °FSunny.7 mph49%29.59 "Hg10 mi
9:20 PM45 °FSunny.6 mph61%29.59 "Hg10 mi
8:50 PM46 °FSunny.6 mph53%29.59 "Hg10 mi
8:20 PM48 °FSunny.6 mph54%29.59 "Hg10 mi
7:50 PM48 °FSunny.9 mph54%29.59 "Hg10 mi
7:20 PM48 °FScattered clouds.8 mph54%29.56 "HgN/A
6:50 PM50 °FScattered showers. Scattered clouds.10 mph50%29.56 "HgN/A
6:20 PM50 °FScattered showers. Scattered clouds.14 mph50%29.56 "HgN/A
5:50 PM52 °FScattered showers. Scattered clouds.15 mph47%29.56 "HgN/A
5:20 PM50 °FScattered showers. Scattered clouds.16 mph54%29.56 "HgN/A
4:50 PM52 °FScattered showers. Scattered clouds.16 mph47%29.56 "HgN/A
4:20 PM52 °FScattered clouds.18 mph47%29.56 "HgN/A
3:50 PM52 °FScattered showers. Scattered clouds.20 mph47%29.56 "HgN/A
3:20 PM50 °FScattered showers. Scattered clouds.21 mph50%29.56 "HgN/A
2:50 PM52 °FScattered clouds.20 mph47%29.56 "HgN/A
2:20 PM50 °FScattered clouds.16 mph54%29.56 "HgN/A
1:50 PM50 °FScattered clouds.17 mph54%29.56 "HgN/A
1:20 PM50 °FScattered clouds.13 mph54%29.56 "HgN/A
12:50 PM50 °FScattered clouds.8 mph54%29.56 "HgN/A
12:20 PM48 °FScattered clouds.8 mph50%29.56 "HgN/A
11:50 AM48 °FPassing clouds.10 mph54%29.56 "HgN/A
11:20 AM46 °FPassing clouds.12 mph57%29.56 "HgN/A
10:50 AM46 °FSunny.13 mph57%29.56 "Hg10 mi
10:20 AM45 °FSunny.14 mph61%29.53 "Hg10 mi
9:50 AM45 °FSunny.14 mph61%29.53 "Hg10 mi
9:20 AM43 °FSunny.10 mph66%29.53 "Hg10 mi
8:50 AM43 °FSunny.16 mph71%29.53 "Hg10 mi
8:20 AM41 °FSunny.14 mph76%29.53 "Hg10 mi
7:50 AM39 °FSunny.13 mph75%29.53 "Hg10 mi
7:20 AM37 °FSunny.13 mph81%29.53 "Hg10 mi
6:50 AM37 °FSunny.10 mph81%29.50 "Hg10 mi
6:20 AM36 °FClear.10 mph87%29.50 "Hg10 mi
5:50 AM36 °FClear.12 mph87%29.50 "Hg10 mi
5:20 AM36 °FChilly.12 mph87%29.50 "HgN/A
4:50 AM36 °FChilly.12 mph87%29.50 "HgN/A
4:20 AM36 °FChilly.10 mph81%29.47 "HgN/A
3:50 AM37 °FChilly.12 mph75%29.47 "HgN/A
3:20 AM37 °FChilly.12 mph75%29.47 "HgN/A
2:50 AM37 °FChilly.8 mph75%29.47 "HgN/A
2:20 AM39 °FChilly.8 mph70%29.47 "HgN/A
1:50 AM41 °FQuite cool.10 mph76%29.45 "HgN/A
1:20 AM43 °FQuite cool.9 mph76%29.45 "HgN/A
12:50 AM43 °FPassing clouds.13 mph93%29.42 "HgN/A
12:20 AM45 °FPassing clouds.15 mph87%29.42 "HgN/A
11:50 PM
Sat, Apr 25
45 °FMostly cloudy.16 mph93%29.39 "HgN/A
Weather by CustomWeather, © 2015

See weather overviewHow to use our weather pages